TimePDT,TemperatureF,Dew PointF,Humidity,Sea Level PressureIn,VisibilityMPH,Wind Direction,Wind SpeedMPH,Gust SpeedMPH,PrecipitationIn,Events,Conditions,WindDirDegrees,DateUTC
12:15 AM,68.0,35.6,30,30.08,10.0,NNW,10.4,-,N/A,,Clear,330,2013-07-31 07:15:00
12:35 AM,66.2,35.6,32,30.08,10.0,NW,6.9,-,N/A,,Clear,320,2013-07-31 07:35:00
12:55 AM,66.2,35.6,32,30.08,10.0,West,3.5,-,N/A,,Clear,280,2013-07-31 07:55:00
1:15 AM,62.6,33.8,34,30.08,10.0,ENE,3.5,-,N/A,,Clear,60,2013-07-31 08:15:00
1:35 AM,62.6,33.8,34,30.09,10.0,NNE,3.5,-,N/A,,Clear,20,2013-07-31 08:35:00
1:55 AM,60.8,33.8,36,30.08,10.0,North,3.5,-,N/A,,Clear,350,2013-07-31 08:55:00
2:15 AM,60.8,33.8,36,30.08,10.0,North,9.2,-,N/A,,Clear,350,2013-07-31 09:15:00
2:35 AM,60.8,33.8,36,30.08,10.0,West,8.1,-,N/A,,Clear,270,2013-07-31 09:35:00
2:55 AM,62.6,35.6,37,30.08,10.0,WNW,9.2,-,N/A,,Clear,290,2013-07-31 09:55:00
3:15 AM,62.6,33.8,34,30.08,10.0,WNW,6.9,-,N/A,,Clear,290,2013-07-31 10:15:00
3:35 AM,60.8,33.8,36,30.08,10.0,WNW,3.5,-,N/A,,Clear,300,2013-07-31 10:35:00
3:55 AM,60.8,33.8,36,30.08,10.0,WNW,8.1,-,N/A,,Clear,300,2013-07-31 10:55:00
4:15 AM,57.2,32.0,38,30.09,10.0,Calm,Calm,-,N/A,,Clear,0,2013-07-31 11:15:00
4:35 AM,55.4,33.8,44,30.09,10.0,Calm,Calm,-,N/A,,Clear,0,2013-07-31 11:35:00
4:55 AM,59.0,33.8,39,30.09,10.0,Calm,Calm,-,N/A,,Clear,0,2013-07-31 11:55:00
5:15 AM,59.0,33.8,39,30.09,10.0,Calm,Calm,-,N/A,,Clear,0,2013-07-31 12:15:00
5:35 AM,53.6,30.2,41,30.10,10.0,Calm,Calm,-,N/A,,Clear,0,2013-07-31 12:35:00
5:55 AM,51.8,30.2,44,30.10,10.0,East,3.5,-,N/A,,Clear,80,2013-07-31 12:55:00
6:15 AM,50.0,30.2,47,30.10,10.0,ESE,5.8,-,N/A,,Clear,120,2013-07-31 13:15:00
6:35 AM,55.4,33.8,44,30.10,10.0,Calm,Calm,-,N/A,,Clear,0,2013-07-31 13:35:00
6:55 AM,57.2,33.8,41,30.10,10.0,Calm,Calm,-,N/A,,Clear,0,2013-07-31 13:55:00
7:15 AM,60.8,35.6,39,30.10,10.0,Calm,Calm,-,N/A,,Clear,0,2013-07-31 14:15:00
7:35 AM,60.8,35.6,39,30.10,10.0,Calm,Calm,-,N/A,,Clear,0,2013-07-31 14:35:00
7:55 AM,64.4,37.4,37,30.10,10.0,Calm,Calm,-,N/A,,Clear,0,2013-07-31 14:55:00
8:15 AM,66.2,37.4,35,30.10,10.0,Calm,Calm,-,N/A,,Clear,0,2013-07-31 15:15:00
8:35 AM,66.2,37.4,35,30.09,10.0,North,4.6,-,N/A,,Clear,360,2013-07-31 15:35:00
8:55 AM,66.2,37.4,35,30.09,10.0,NW,4.6,-,N/A,,Clear,320,2013-07-31 15:55:00
9:15 AM,66.2,37.4,35,30.09,10.0,NNW,3.5,-,N/A,,Clear,330,2013-07-31 16:15:00
9:35 AM,69.8,37.4,31,30.09,10.0,Calm,Calm,-,N/A,,Clear,0,2013-07-31 16:35:00
9:55 AM,69.8,37.4,31,30.09,10.0,Calm,Calm,-,N/A,,Scattered Clouds,0,2013-07-31 16:55:00
10:15 AM,69.8,37.4,31,30.08,10.0,North,5.8,-,N/A,,Partly Cloudy,350,2013-07-31 17:15:00
10:35 AM,69.8,39.2,33,30.09,10.0,NNW,6.9,-,N/A,,Partly Cloudy,330,2013-07-31 17:35:00
10:55 AM,71.6,39.2,31,30.08,10.0,ENE,6.9,-,N/A,,Partly Cloudy,60,2013-07-31 17:55:00
11:15 AM,73.4,39.2,29,30.08,10.0,West,3.5,-,N/A,,Partly Cloudy,260,2013-07-31 18:15:00
11:35 AM,73.4,39.2,29,30.07,10.0,Calm,Calm,-,N/A,,Clear,0,2013-07-31 18:35:00
11:55 AM,75.2,39.2,27,30.06,10.0,NNW,8.1,-,N/A,,Clear,340,2013-07-31 18:55:00
12:15 PM,75.2,39.2,27,30.06,10.0,Calm,Calm,-,N/A,,Clear,0,2013-07-31 19:15:00
12:35 PM,77.0,39.2,26,30.06,10.0,Calm,Calm,-,N/A,,Partly Cloudy,0,2013-07-31 19:35:00
12:55 PM,78.8,39.2,24,30.05,10.0,Calm,Calm,-,N/A,,Clear,0,2013-07-31 19:55:00
1:15 PM,80.6,39.2,23,30.05,10.0,West,3.5,-,N/A,,Clear,280,2013-07-31 20:15:00
1:35 PM,80.6,41.0,24,30.05,10.0,Calm,Calm,-,N/A,,Clear,0,2013-07-31 20:35:00
1:55 PM,80.6,39.2,23,30.03,10.0,Calm,Calm,-,N/A,,Clear,0,2013-07-31 20:55:00
2:15 PM,82.4,41.0,23,30.03,10.0,SE,5.8,-,N/A,,Clear,130,2013-07-31 21:15:00
2:35 PM,82.4,41.0,23,30.02,10.0,East,8.1,-,N/A,,Partly Cloudy,80,2013-07-31 21:35:00
2:55 PM,82.4,42.8,25,30.02,10.0,Calm,Calm,-,N/A,,Clear,0,2013-07-31 21:55:00
3:15 PM,84.2,42.8,23,30.02,10.0,Calm,Calm,-,N/A,,Clear,0,2013-07-31 22:15:00
3:35 PM,84.2,42.8,23,30.01,10.0,East,3.5,-,N/A,,Clear,90,2013-07-31 22:35:00
3:55 PM,86.0,42.8,22,30.01,10.0,NNW,3.5,-,N/A,,Clear,330,2013-07-31 22:55:00
4:15 PM,86.0,42.8,22,30.00,10.0,NW,10.4,-,N/A,,Clear,320,2013-07-31 23:15:00
4:35 PM,87.8,42.8,21,30.00,10.0,NW,11.5,-,N/A,,Clear,310,2013-07-31 23:35:00
4:55 PM,84.2,39.2,20,30.00,10.0,WNW,11.5,19.6,N/A,,Clear,300,2013-07-31 23:55:00
5:15 PM,84.2,39.2,20,29.99,10.0,NW,15.0,-,N/A,,Clear,320,2013-08-01 00:15:00
5:35 PM,84.2,39.2,20,29.98,10.0,NW,12.7,17.3,N/A,,Clear,310,2013-08-01 00:35:00
5:55 PM,82.4,39.2,21,29.97,10.0,NW,10.4,-,N/A,,Clear,320,2013-08-01 00:55:00
6:15 PM,82.4,39.2,21,29.97,10.0,NNW,10.4,-,N/A,,Clear,330,2013-08-01 01:15:00
6:35 PM,82.4,41.0,23,29.96,10.0,NNE,8.1,-,N/A,,Clear,20,2013-08-01 01:35:00
6:55 PM,82.4,41.0,23,29.96,10.0,NNE,11.5,-,N/A,,Clear,30,2013-08-01 01:55:00
7:15 PM,80.6,41.0,24,29.97,10.0,North,8.1,-,N/A,,Clear,10,2013-08-01 02:15:00
7:35 PM,78.8,41.0,26,29.97,10.0,North,5.8,-,N/A,,Clear,360,2013-08-01 02:35:00
7:55 PM,77.0,41.0,28,29.97,10.0,North,5.8,-,N/A,,Clear,350,2013-08-01 02:55:00
8:15 PM,75.2,39.2,27,29.98,10.0,NW,8.1,-,N/A,,Clear,310,2013-08-01 03:15:00
8:35 PM,77.0,39.2,26,29.99,10.0,NW,9.2,-,N/A,,Clear,310,2013-08-01 03:35:00
8:55 PM,77.0,39.2,26,30.00,10.0,West,18.4,-,N/A,,Clear,280,2013-08-01 03:55:00
9:15 PM,75.2,37.4,25,30.01,10.0,WNW,13.8,19.6,N/A,,Clear,300,2013-08-01 04:15:00
9:35 PM,75.2,37.4,25,30.00,10.0,NW,16.1,-,N/A,,Clear,310,2013-08-01 04:35:00
9:55 PM,73.4,37.4,27,30.00,10.0,WNW,12.7,-,N/A,,Clear,300,2013-08-01 04:55:00
10:15 PM,73.4,37.4,27,30.00,10.0,WNW,18.4,24.2,N/A,,Clear,290,2013-08-01 05:15:00
10:35 PM,73.4,37.4,27,30.00,10.0,WNW,15.0,-,N/A,,Clear,300,2013-08-01 05:35:00
10:55 PM,71.6,37.4,29,29.99,10.0,NW,10.4,-,N/A,,Clear,310,2013-08-01 05:55:00
11:15 PM,68.0,35.6,30,29.99,10.0,North,9.2,-,N/A,,Clear,350,2013-08-01 06:15:00
11:35 PM,66.2,35.6,32,29.99,10.0,NNW,6.9,-,N/A,,Clear,340,2013-08-01 06:35:00
11:55 PM,66.2,37.4,35,29.99,10.0,NW,8.1,-,N/A,,Clear,310,2013-08-01 06:55:00